Location: Boulder, CO
(40.0083°N, 105.2472°W)
Time: 13:15:37
(UTC-06:00)

SORCE - Visible Passes

Search period start: 31 October 2014 00:00
Search period end: 09 November 2014 23:00
Orbit: 592 x 626 km, 40.0° (Epoch: 31 October)

Date Brightness Start Highest point End Pass type
(mag) Time Alt. Az. Time Alt. Az. Time Alt. Az.
31 Oct 6.8 19:09:30 10° SW 19:13:39 39° SSE 19:15:46 24° ESE visible
31 Oct 8.3 20:50:59 10° W 20:52:36 22° WSW 20:52:36 22° WSW visible
01 Nov 6.2 19:22:20 10° WSW 19:26:43 57° SSE 19:28:19 35° E visible
01 Nov 8.7 21:04:10 10° W 21:05:09 16° W 21:05:09 16° W visible
02 Nov 5.9 18:35:22 10° WSW 18:39:50 75° SSE 18:40:50 52° E visible
02 Nov 9.1 20:17:22 10° W 20:17:40 12° W 20:17:40 12° W visible
03 Nov 5.8 18:48:30 10° W 18:52:59 88° S 18:53:18 77° E visible
04 Nov 6.2 17:19:45 10° WSW 17:24:09 64° SSE 17:28:36 10° E visible
04 Nov 6.1 19:01:40 10° W 19:05:45 73° W 19:05:45 73° W visible
05 Nov 6.0 17:32:49 10° WSW 17:37:16 81° S 17:41:22 12° E visible
05 Nov 6.8 19:14:50 10° W 19:18:11 50° W 19:18:11 50° W visible
06 Nov 6.0 17:45:57 10° W 17:50:25 89° N 17:53:49 17° E visible
06 Nov 7.5 19:27:59 10° W 19:30:38 35° W 19:30:38 35° W visible
07 Nov 5.9 17:59:06 10° W 18:03:34 90° N 18:06:17 24° E visible
07 Nov 8.1 19:41:10 10° W 19:43:07 24° W 19:43:07 24° W visible
08 Nov 6.0 18:12:14 10° W 18:16:42 80° S 18:18:48 31° ESE visible
08 Nov 8.7 19:54:25 10° W 19:55:39 17° W 19:55:39 17° W visible
09 Nov 6.2 18:25:22 10° W 18:29:46 63° SSW 18:31:24 37° SE visible
09 Nov 9.1 20:07:56 10° W 20:08:14 11° W 20:08:14 11° W visible
